Retour au catalogue

IRIDIUM 123

ActifCommunicationsPO
NORAD 42804·PAYLOAD·🇺🇸 United States

Lancé Jun 25, 2017 depuis Vandenberg Space Force Base

Loading…

Prochains Passages (prochaines 24 heures)

TLE

FraisSource: CelesTrak SupGP

Époque: Sep 14, 2026, 09:27 UTC

1 42804C 17039B   26257.39409722 -.00002590  00000+0 -92620-3 0  2572
2 42804  86.3978 316.3697 0002242  92.4135 359.8870 14.34218532    14

Suivez IRIDIUM 123 en temps réel avec AllMySat

Download on the App Store